Stations météo

réclame
Mon MeteoGroup
Nürburg/Barweiler, Allemagne (10506): Température de l'air & dewpoint: 17.10.2018 07:00:00 - 23.10.2018 07:00:00 (CEST)Nürburg/Barweiler, Allemagne (10506): Température de l'air 5cm & Température de l'air -5cm: 17.10.2018 07:00:00 - 23.10.2018 07:00:00 (CEST)Nürburg/Barweiler, Allemagne (10506): Température de l'air -20cm & Température de l'air -100cm: 17.10.2018 07:00:00 - 23.10.2018 07:00:00 (CEST)Nürburg/Barweiler, Allemagne (10506): Vitesse du vent & gusts: 17.10.2018 07:00:00 - 23.10.2018 07:00:00 (CEST)Nürburg/Barweiler, Allemagne (10506): Direction du vent: 17.10.2018 07:00:00 - 23.10.2018 07:00:00 (CEST)Nürburg/Barweiler, Allemagne (10506): reduced air pressure: 17.10.2018 07:00:00 - 23.10.2018 07:00:00 (CEST)Nürburg/Barweiler, Allemagne (10506): visibility: 17.10.2018 07:00:00 - 23.10.2018 07:00:00 (CEST)Nürburg/Barweiler, Allemagne (10506): Ensoleillement: 17.10.2018 07:00:00 - 23.10.2018 07:00:00 (CEST)Nürburg/Barweiler, Allemagne (10506): Quantités de précipitations: 17.10.2018 07:00:00 - 23.10.2018 07:00:00 (CEST)
Date & Time tt [°C] td [°C] tt 5cm [°C] tt -5cm [°C] tt -20cm [°C] tt -100cm [°C] ff [km/h] ff [knt] fx [km/h] fx [knt] dd ppp [hPa] vv [km] sd [min] rr [mm]
23.10.2018 07:00:00 3,7 2,5 2,5 4,4 8,9 13,3 11 6 18 10 SW 1030,7 14 0 0,0
23.10.2018 06:00:00 2,8 2,0 1,9 4,3 9,1 13,3 10 5 17 9 SSW 1031,1 10 0 0,0
23.10.2018 05:00:00 2,4 2,0 1,3 4,6 9,3 13,3 7 4 16 9 SSW 1032,0 6 0 0,0
23.10.2018 04:00:00 3,1 2,6 1,7 4,9 9,5 13,3 6 4 10 6 SW 1033,4 5 0 0,0
23.10.2018 03:00:00 3,5 3,0 2,3 5,3 9,6 13,3 8 4 11 6 SSW 1033,5 6 0 0,0
23.10.2018 02:00:00 3,8 3,3 2,0 5,8 9,8 13,3 5 3 8 4 WSW 1034,1 4,7 0 0,0
23.10.2018 01:00:00 4,8 4,7 2,6 6,3 9,9 13,3 4 2 8 5 WNW 1034,3 0,3 0 0,0
23.10.2018 00:00:00 5,8 5,4 3,8 7,0 10,0 13,3 7 4 9 5 SW 1034,1 4,4 0 0,0
22.10.2018 23:00:00 7,0 6,2 3,9 7,8 10,1 13,3 5 3 6 3 NNW 1034,0 6 0 0,0
22.10.2018 22:00:00 7,7 7,0 6,3 8,5 10,1 13,3 3 2 7 4 NNW 1034,0 6 0 0,0
22.10.2018 21:00:00 7,8 7,3 7,4 8,7 10,1 13,4 5 3 9 5 SW 1033,5 4,0 0 0,0
22.10.2018 20:00:00 8,0 7,4 7,4 8,8 10,1 13,4 4 2 7 4 S 1033,3 4,4 0 0,0
22.10.2018 19:00:00 7,9 7,4 7,3 9,0 10,1 13,4 3 2 11 6 NE 1033,3 13 0 0,0
22.10.2018 18:00:00 8,2 7,3 7,9 9,4 10,0 13,4 10 6 27 15 NNE 1032,8 12 0 0,0
22.10.2018 17:00:00 8,0 7,2 7,8 9,6 9,9 13,4 20 11 31 17 N 1032,0 2,4 0 0,5
22.10.2018 16:00:00 8,5 8,2 8,7 9,7 9,8 13,4 8 5 25 13 NE 1031,7 0,8 0 0,3
22.10.2018 15:00:00 8,4 8,0 8,5 9,7 9,7 13,4 14 8 32 18 NNE 1031,7 2,8 0 0,0
22.10.2018 14:00:00 8,6 8,2 9,0 9,6 9,6 13,4 15 8 31 17 N 1031,5 1,6 0 0,0
22.10.2018 13:00:00 9,0 6,9 9,0 9,5 9,5 13,4 16 9 23 12 N 1031,2 2,6 0 0,0
22.10.2018 12:00:00 9,9 5,5 10,4 9,1 9,4 13,4 8 5 15 8 N 1030,5 11 0 0,0
22.10.2018 11:00:00 9,3 4,9 9,7 8,5 9,4 13,5 5 3 9 5 NNE 1030,3 17 0 0,0
22.10.2018 10:00:00 8,7 5,1 9,0 7,2 9,4 13,5 5 3 7 4 ENE 1029,7 16 0 0,0
22.10.2018 09:00:00 6,1 4,2 6,0 6,5 9,5 13,5 4 2 6 4 E 1029,6 13 0 0,0
22.10.2018 08:00:00 5,8 3,2 5,1 6,2 9,6 13,5 4 2 7 4 SW 1028,9 14 0 0,0
22.10.2018 07:00:00 4,0 2,5 3,7 5,9 9,8 13,5 4 2 14 7 WSW 1029,1 16 0 0,0
22.10.2018 06:00:00 4,5 3,1 2,7 5,6 10,0 13,5 4 2 12 7 S 1028,4 16 0 0,0
22.10.2018 05:00:00 4,1 2,2 2,3 5,8 10,1 13,5 4 2 7 4 SSW 1028,6 14 0 0,0
22.10.2018 04:00:00 4,8 2,7 2,1 6,2 10,3 13,5 5 3 8 4 SW 1028,5 20 0 0,0
22.10.2018 03:00:00 5,7 2,8 3,3 6,5 10,5 13,5 5 3 8 4 SW 1028,3 23 0 0,0
22.10.2018 02:00:00 5,6 2,9 3,8 6,8 10,7 13,5 5 3 7 4 W 1028,4 22 0 0,0
22.10.2018 01:00:00 6,7 3,3 3,6 7,3 10,8 13,5 4 2 8 4 WSW 1028,0 24 0 0,0
22.10.2018 00:00:00 6,5 3,0 4,3 7,8 11,0 13,5 5 3 9 5 WSW 1028,3 27 0 0,0
21.10.2018 23:00:00 7,9 3,6 5,5 8,2 11,1 13,6 9 5 10 6 S 1027,7 29 0 0,0
21.10.2018 22:00:00 7,3 3,1 5,1 8,8 11,2 13,6 5 3 13 7 WNW 1027,7 33 0 0,0
21.10.2018 21:00:00 9,5 3,2 6,2 9,5 11,3 13,6 8 4 15 8 ESE 1027,5 38 0 0,0
21.10.2018 20:00:00 10,4 3,6 8,2 10,3 11,2 13,6 13 7 19 10 SE 1027,2 31 0 0,0
21.10.2018 19:00:00 10,9 3,3 8,7 11,2 11,1 13,6 10 5 14 7 SE 1027,0 39 15 0,0
21.10.2018 18:00:00 12,4 3,5 10,1 12,5 10,9 13,6 8 4 14 7 SE 1026,5 49 57 0,0
21.10.2018 17:00:00 13,5 3,2 15,0 13,8 10,6 13,6 8 5 13 7 ESE 1026,6 43 60 0,0
21.10.2018 16:00:00 14,7 3,7 16,2 14,3 10,3 13,6 8 4 16 8 S 1026,8 38 60 0,0
21.10.2018 15:00:00 13,7 2,8 16,6 13,7 9,9 13,6 6 3 18 10 SE 1027,4 28 60 0,0
21.10.2018 14:00:00 13,8 3,3 15,5 12,5 9,7 13,6 9 5 19 11 SSE 1027,7 28 60 0,0
21.10.2018 13:00:00 12,8 3,6 14,2 10,8 9,5 13,6 10 5 24 13 ESE 1028,4 20 60 0,0
21.10.2018 12:00:00 10,6 5,1 9,2 8,8 9,4 13,6 4 2 11 6 SSW 1029,4 11 60 0,0
21.10.2018 11:00:00 5,7 2,6 6,1 6,7 9,5 13,6 3 1 5 3 SW 1030,8 6 60 0,0
21.10.2018 10:00:00 2,9 0,0 3,2 5,1 9,7 13,6 0 0 5 3 N 1031,3 3,5 60 0,0
21.10.2018 09:00:00 0,8 -0,3 -0,1 4,5 9,8 13,6 4 2 7 4 W 1031,4 2,6 19 0,0
21.10.2018 08:00:00 2,5 2,3 1,2 4,7 10,0 13,6 5 3 9 5 S 1030,6 3,5 0 0,0
21.10.2018 07:00:00 1,5 1,5 0,4 5,0 10,3 13,6 6 3 8 5 SSW 1031,4 0,1 0 0,0
21.10.2018 06:00:00 1,0 0,7 0,1 5,3 10,5 13,6 4 2 9 5 S 1031,9 0,1 0 0,0
21.10.2018 05:00:00 2,8 2,4 1,7 5,5 10,7 13,7 4 2 8 4 SSW 1031,3 0,4 0 0,0
21.10.2018 04:00:00 3,8 3,5 1,2 5,8 10,9 13,7 2 1 7 4 ENE 1031,2 0,9 0 0,0
21.10.2018 03:00:00 3,3 2,9 1,7 6,2 11,1 13,7 4 2 6 3 SW 1031,6 2,1 0 0,0
21.10.2018 02:00:00 4,7 4,2 1,3 6,6 11,4 13,7 0 0 6 4 N 1031,5 3,2 0 0,0
21.10.2018 01:00:00 4,6 3,8 1,3 7,1 11,6 13,7 3 2 6 4 WSW 1032,0 2,4 0 0,0
21.10.2018 00:00:00 5,4 4,3 2,5 7,6 11,8 13,7 3 2 7 4 ENE 1032,0 3,4 0 0,0
20.10.2018 23:00:00 5,6 4,1 2,8 8,2 12,0 13,7 5 3 6 3 NW 1032,0 3,9 0 0,0
20.10.2018 22:00:00 7,1 5,0 3,8 8,9 12,2 13,7 2 1 5 3 N 1031,3 6 0 0,0
20.10.2018 21:00:00 7,6 4,9 4,1 9,7 12,3 13,7 6 3 10 5 NE 1031,8 7 0 0,0
20.10.2018 20:00:00 8,3 4,7 6,4 10,5 12,4 13,7 6 3 16 9 N 1031,7 8 0 0,0
20.10.2018 19:00:00 8,8 4,3 6,3 11,6 12,4 13,7 9 5 14 8 N 1031,0 11 2 0,0
20.10.2018 18:00:00 10,1 4,6 8,9 12,9 12,3 13,7 10 5 21 12 N 1030,5 12 3 0,0
20.10.2018 17:00:00 11,8 4,4 11,7 14,0 12,1 13,7 11 6 16 9 N 1029,8 17 8 0,0
20.10.2018 16:00:00 12,5 4,5 13,7 14,5 11,8 13,7 6 4 11 6 NNW 1029,6 14 42 0,0
20.10.2018 15:00:00 12,2 3,8 13,4 14,4 11,6 13,7 5 3 18 10 N 1030,1 12 60 0,0
20.10.2018 14:00:00 11,5 4,4 14,0 13,6 11,4 13,7 8 5 16 9 NNW 1030,7 9 59 0,0
20.10.2018 13:00:00 10,4 5,3 13,4 12,2 11,3 13,7 10 6 20 11 NNW 1031,2 9 54 0,0
20.10.2018 12:00:00 9,0 6,0 9,9 11,0 11,3 13,7 8 4 16 8 NNE 1031,7 7 29 0,0
20.10.2018 11:00:00 6,2 5,9 7,4 9,7 11,3 13,7 3 2 7 4 NW 1032,0 0,1 0 0,0
20.10.2018 10:00:00 6,0 5,8 6,9 8,9 11,4 13,7 2 1 11 6 NNW 1031,0 0,1 0 0,0
20.10.2018 09:00:00 6,0 6,0 6,0 8,5 11,5 13,7 5 3 16 9 NNE 1030,7 0,1 0 0,0
20.10.2018 08:00:00 6,5 6,2 6,4 8,4 11,6 13,7 6 3 16 9 NE 1029,9 0,2 0 0,0
20.10.2018 07:00:00 6,9 6,6 6,8 8,1 11,8 13,8 9 5 13 7 NNE 1029,0 0,3 0 0,0
20.10.2018 06:00:00 6,3 6,2 4,3 8,0 12,0 13,8 6 3 13 7 NE 1028,8 0,1 0 0,0
20.10.2018 05:00:00 7,0 7,0 4,7 8,4 12,1 13,8 4 2 8 5 ENE 1028,2 0,7 0 0,0
20.10.2018 04:00:00 7,5 7,1 4,7 9,0 12,3 13,8 4 2 8 4 N 1027,7 1,0 0 0,0
20.10.2018 03:00:00 8,1 7,4 5,7 9,9 12,4 13,8 4 2 7 4 N 1027,5 2,1 0 0,0
20.10.2018 02:00:00 8,5 7,5 7,8 10,0 12,5 13,8 5 3 8 4 NW 1027,4 2,7 0 0,0
20.10.2018 01:00:00 9,2 7,9 7,9 10,0 12,7 13,8 7 4 12 6 NNW 1026,8 3,5 0 0,0
20.10.2018 00:00:00 8,0 6,9 6,7 10,2 12,8 13,8 9 5 11 6 NNW 1026,8 2,4 0 0,0
19.10.2018 23:00:00 9,2 8,0 6,8 10,8 12,9 13,8 6 3 9 5 NNE 1026,2 3,5 0 0,0
19.10.2018 22:00:00 9,6 7,8 7,7 11,3 13,0 13,8 7 4 10 5 N 1026,2 4,3 0 0,0
19.10.2018 21:00:00 10,3 8,2 9,3 11,8 13,1 13,8 8 5 11 6 NNE 1025,7 5 0 0,0
19.10.2018 20:00:00 10,3 8,4 8,0 12,4 13,1 13,8 6 3 13 7 NE 1025,0 6 0 0,0
19.10.2018 19:00:00 11,4 8,6 10,5 13,5 13,0 13,8 8 4 16 8 NNE 1024,0 9 0 0,0
19.10.2018 18:00:00 13,0 8,0 11,3 15,0 12,8 13,8 5 3 13 7 N 1023,0 10 52 0,0
19.10.2018 17:00:00 14,7 8,5 16,7 15,3 12,6 13,8 4 2 9 5 NW 1022,7 9 60 0,0
19.10.2018 16:00:00 13,9 8,6 16,0 15,4 12,4 13,8 5 3 11 6 WNW 1023,0 8 60 0,0
19.10.2018 15:00:00 12,7 8,2 15,7 14,5 12,2 13,8 6 3 11 6 NNW 1023,5 6 40 0,0
19.10.2018 14:00:00 11,4 8,7 13,7 13,6 12,1 13,8 5 3 10 5 WNW 1024,0 4,5 0 0,0
19.10.2018 13:00:00 10,3 8,6 11,7 12,4 12,0 13,8 2 1 8 5 S 1024,6 3,9 0 0,0
19.10.2018 12:00:00 9,1 8,2 10,0 11,6 12,0 13,8 5 3 8 4 NNW 1025,1 2,9 0 0,0
19.10.2018 11:00:00 8,7 8,1 9,5 10,9 12,0 13,8 5 3 10 6 NNE 1025,3 3,1 0 0,0
19.10.2018 10:00:00 8,0 7,7 8,7 10,3 12,0 13,8 4 2 8 4 NE 1025,1 3,3 0 0,0
19.10.2018 09:00:00 7,0 6,7 7,3 9,8 12,1 13,8 0 0 6 3 N 1025,0 0,7 0 0,0
19.10.2018 08:00:00 6,6 6,4 6,8 9,7 12,2 13,8 3 1 7 4 ENE 1024,6 0,1 0 0,0
19.10.2018 07:00:00 6,9 6,8 7,1 9,8 12,2 13,8 4 2 6 4 NE 1024,7 0,1 0 0,0
19.10.2018 06:00:00 7,1 7,1 7,2 9,8 12,3 13,8 5 3 8 4 ENE 1024,4 0,1 0 0,0
19.10.2018 05:00:00 7,2 7,0 7,4 9,8 12,5 13,8 5 3 7 4 NNE 1024,3 0,1 0 0,0
19.10.2018 04:00:00 7,5 7,4 7,4 9,7 12,6 13,8 3 2 7 4 ENE 1024,2 0,1 0 0,0
19.10.2018 03:00:00 8,1 8,0 7,9 9,5 12,8 13,8 5 3 10 5 ENE 1024,2 0,1 0 0,0
19.10.2018 02:00:00 8,1 7,8 6,1 9,4 13,0 13,8 5 3 10 6 ENE 1024,4 0,7 0 0,0
19.10.2018 01:00:00 8,3 7,8 6,1 9,8 13,1 13,8 5 3 9 5 NE 1024,6 2,0 0 0,0
19.10.2018 00:00:00 8,5 7,4 6,5 10,3 13,3 13,8 7 4 14 8 NE 1024,5 4,0 0 0,0
18.10.2018 23:00:00 9,6 7,6 8,0 10,9 13,4 13,8 10 5 16 8 NE 1024,4 7 0 0,0
18.10.2018 22:00:00 10,1 7,5 8,2 11,6 13,5 13,8 11 6 16 8 NNE 1024,3 8 0 0,0
18.10.2018 21:00:00 10,8 9,2 8,0 12,5 13,6 13,8 8 4 12 7 NNE 1023,5 3,2 0 0,0
18.10.2018 20:00:00 12,2 9,8 11,4 13,1 13,6 13,8 8 4 16 9 NE 1023,3 4,1 0 0,0
18.10.2018 19:00:00 12,4 10,0 12,0 13,5 13,6 13,8 9 5 16 9 N 1023,0 3,6 0 0,0
18.10.2018 18:00:00 12,9 10,2 12,7 13,9 13,5 13,8 9 5 17 9 N 1022,8 3,9 0 0,0
18.10.2018 17:00:00 13,3 9,8 13,5 14,2 13,5 13,8 13 7 24 13 NNE 1022,7 5 17 0,0
18.10.2018 16:00:00 13,2 10,0 14,0 13,9 13,4 13,8 13 7 22 12 NNE 1022,9 4,5 0 0,0
18.10.2018 15:00:00 12,3 10,6 12,5 13,8 13,4 13,8 14 8 25 13 N 1022,9 2,5 0 0,0
18.10.2018 14:00:00 12,6 10,5 13,2 14,0 13,3 13,8 13 7 23 12 NNE 1023,0 2,4 0 0,0
18.10.2018 13:00:00 13,0 11,0 13,7 14,1 13,2 13,8 11 6 20 11 NNE 1022,9 2,2 0 0,0
18.10.2018 12:00:00 12,6 11,3 13,0 13,3 13,2 13,8 10 5 22 12 NNE 1023,0 1,7 0 0,0
18.10.2018 11:00:00 11,5 11,1 11,9 12,6 13,2 13,8 12 7 23 13 NE 1023,0 0,9 0 0,0
18.10.2018 10:00:00 11,2 11,0 11,4 12,2 13,2 13,8 14 8 27 14 NNE 1022,8 0,1 0 0,0
18.10.2018 09:00:00 11,0 10,9 11,0 12,0 13,2 13,8 14 8 22 12 NNE 1022,6 0,1 0 0,0
18.10.2018 08:00:00 11,1 11,0 11,0 12,0 13,3 13,8 13 7 20 11 NNE 1022,1 0,1 0 0,0
18.10.2018 07:00:00 11,3 11,2 11,2 11,9 13,3 13,8 12 6 22 12 N 1021,7 0,1 0 0,0
18.10.2018 06:00:00 11,4 11,3 11,3 11,7 13,4 13,8 11 6 18 10 N 1021,5 0,1 0 0,0
18.10.2018 05:00:00 11,3 11,2 11,1 11,4 13,6 13,8 14 8 21 11 N 1021,2 0,1 0 0,0
18.10.2018 04:00:00 11,7 11,4 10,9 10,9 13,8 13,8 9 5 13 7 N 1020,9 0,5 0 0,0
18.10.2018 03:00:00 11,5 11,1 8,6 11,2 13,9 13,8 4 2 10 5 NNE 1021,1 0,8 0 0,0
18.10.2018 02:00:00 11,8 10,9 9,3 11,6 14,1 13,8 8 4 10 6 N 1021,1 1,3 0 0,0
18.10.2018 01:00:00 12,1 10,5 9,2 12,1 14,3 13,8 5 3 9 5 NNW 1021,2 2,1 0 0,0
18.10.2018 00:00:00 12,8 10,3 9,6 12,6 14,4 13,8 4 2 9 5 NW 1020,9 3,0 0 0,0
17.10.2018 23:00:00 14,0 10,2 11,3 13,0 14,6 13,8 7 4 14 7 N 1020,7 3,6 0 0,0
17.10.2018 22:00:00 14,3 9,8 12,1 13,5 14,7 13,8 10 5 16 9 N 1020,4 6 0 0,0
17.10.2018 21:00:00 15,1 9,4 11,7 14,2 14,8 13,8 8 4 12 7 NNE 1019,9 11 0 0,0
17.10.2018 20:00:00 16,0 9,4 12,5 15,0 14,7 13,8 8 4 13 7 NNE 1019,0 19 0 0,0
17.10.2018 19:00:00 17,0 8,5 13,5 16,2 14,6 13,8 2 1 12 6 NE 1018,4 27 0 0,0
17.10.2018 18:00:00 19,0 8,4 16,7 17,6 14,4 13,8 8 5 15 8 E 1017,6 26 42 0,0
17.10.2018 17:00:00 20,3 8,8 20,0 18,8 14,1 13,8 9 5 16 9 NNE 1017,3 27 57 0,0
17.10.2018 16:00:00 21,3 7,8 22,9 19,2 13,7 13,8 9 5 17 9 NE 1017,0 26 60 0,0
17.10.2018 15:00:00 21,1 6,6 23,2 18,6 13,3 13,8 6 4 14 8 N 1017,4 35 60 0,0
17.10.2018 14:00:00 20,6 6,4 22,2 17,5 13,0 13,8 4 2 14 7 NE 1018,0 26 60 0,0
17.10.2018 13:00:00 19,3 7,4 20,7 15,7 12,8 13,8 9 5 14 8 NE 1018,5 24 60 0,0
17.10.2018 12:00:00 17,4 8,4 17,8 13,5 12,8 13,8 2 1 12 6 N 1019,3 25 60 0,0
17.10.2018 11:00:00 14,5 8,7 14,2 11,7 12,8 13,8 2 1 9 5 SW 1019,8 17 60 0,0
17.10.2018 10:00:00 10,4 7,1 10,5 10,4 13,0 13,8 4 2 7 4 NW 1020,5 12 20 0,0
17.10.2018 09:00:00 12,3 8,1 9,9 9,9 13,1 13,8 6 4 8 4 SSE 1019,8 23 14 0,0
17.10.2018 08:00:00 8,7 7,2 6,7 10,0 13,3 13,8 4 2 10 6 W 1020,5 10 0 0,0
17.10.2018 07:00:00 9,0 7,1 6,9 10,2 13,5 13,8 5 3 9 5 SSW 1020,3 11 0 0,0

tt = Température de l'air
td = dewpoint
tt 5cm = Température de l'air 5cm
tt -5cm = Température de l'air -5cm
tt -20cm = Température de l'air -20cm
tt -100cm = Température de l'air -100cm
ff = Vitesse du vent
fx = gusts
dd = Direction du vent
ppp = reduced air pressure
vv = visibility
sd = Ensoleillement
rr = Quantités de précipitations

stations d'obs. à proximité